Valparaiso, IN

12:46 AM CDT on May 25, 2017 (GMT -0500)
Porter County Municipal

Weather History for KVPZ - October, 2013

Change the Weather History Date:

Wednesday, October 23, 2013

  Actual Average Record
Temperature  
Mean Temperature 38 °F 50 °F  
Max Temperature 45 °F 60 °F 76 °F (2016)
Min Temperature 31 °F 41 °F 30 °F (2014)
Degree Days  
Heating Degree Days 27 15  
Month to date heating degree days 266 272  
Since 1 July heating degree days 374 402  
Cooling Degree Days 0 0  
Month to date cooling degree days 25 11  
Year to date cooling degree days 810 713  
Moisture  
Dew Point 30 °F    
Average Humidity 77    
Maximum Humidity 100    
Minimum Humidity 47    
Precipitation  
Precipitation 0.00 in 0.11 in 1.71 in (2009)
Month to date precipitation 1.68 2.45  
Year to date precipitation 29.93 31.20  
Sea Level Pressure  
Sea Level Pressure 29.96 in    
Wind  
Wind Speed 9 mph (West)    
Max Wind Speed 17 mph    
Max Gust Speed 22 mph    
Visibility 9 miles    
Events      
T = Trace of Precipitation, MM = Missing Value Source: NWS Daily Summary

Daily Weather History Graph

Daily Weather History Graph

Search for Another Location

Airport or City:

Trip Planner

Search our weather history database for the weather conditions in past years. The results will help you decide how hot, cold, wet, or windy it might be!

Date:

Astronomy

Oct. 23, 2013 Rise Set
Actual Time 7:09 AM CDT 5:54 PM CDT
Civil Twilight 6:41 AM CDT 6:22 PM CDT
Nautical Twilight 6:08 AM CDT 6:55 PM CDT
Astronomical Twilight 5:36 AM CDT 7:27 PM CDT
Moon 9:23 PM CDT (10/23) 11:27 AM CDT (10/23)
Length of Visible Light 11h 41m
Length of Day
10h 45m
Waning Gibbous, 79% of the Moon is Illuminated
Oct 23
Waning Gibbous
Oct 26
Last Quarter
Nov 3
New
Nov 9
First Quarter
Nov 17
Full

Hourly Weather History & Observations

Time (CDT) Temp. Windchill Dew Point Humidity Pressure Visibility Wind Dir Wind Speed Gust Speed Precip Events Conditions
12:53 AM 35.1 °F 31.0 °F 35.1 °F 100% 29.91 in 9.0 mi West 4.6 mph - N/A   Overcast
1:53 AM 35.1 °F 29.3 °F 35.1 °F 100% 29.91 in 7.0 mi WSW 6.9 mph - N/A   Overcast
2:17 AM 35.6 °F 30.7 °F 35.6 °F 100% 29.88 in 7.0 mi West 5.8 mph - N/A   Overcast
2:31 AM 35.6 °F 28.0 °F 33.8 °F 93% 29.87 in 6.0 mi West 10.4 mph - N/A   Overcast
2:53 AM 34.0 °F 27.2 °F 34.0 °F 100% 29.89 in 5.0 mi West 8.1 mph - N/A   Overcast
3:53 AM 33.1 °F 26.9 °F 32.0 °F 96% 29.88 in 7.0 mi WNW 6.9 mph - N/A   Clear
4:53 AM 33.1 °F 27.7 °F 32.0 °F 96% 29.89 in 8.0 mi WNW 5.8 mph - N/A   Scattered Clouds
5:53 AM 33.1 °F 26.9 °F 32.0 °F 96% 29.91 in 10.0 mi WNW 6.9 mph - N/A   Mostly Cloudy
6:53 AM 30.9 °F 25.2 °F 30.0 °F 96% 29.93 in 10.0 mi West 5.8 mph - N/A   Clear
7:53 AM 34.0 °F 27.2 °F 32.0 °F 92% 29.94 in 10.0 mi WNW 8.1 mph - N/A   Clear
8:53 AM 36.0 °F - 34.0 °F 93% 29.97 in 10.0 mi Calm Calm - N/A   Overcast
9:53 AM 41.0 °F 38.0 °F 36.0 °F 82% 29.97 in 10.0 mi Variable 4.6 mph - N/A   Mostly Cloudy
10:53 AM 42.1 °F 36.1 °F 30.0 °F 62% 29.99 in 10.0 mi NW 10.4 mph 19.6 mph N/A   Partly Cloudy
11:53 AM 44.1 °F 38.6 °F 30.0 °F 58% 29.99 in 10.0 mi NNW 10.4 mph 20.7 mph N/A   Mostly Cloudy
12:53 PM 43.0 °F 39.5 °F 28.0 °F 56% 29.99 in 10.0 mi Variable 5.8 mph 19.6 mph N/A   Scattered Clouds
1:53 PM 44.1 °F 37.4 °F 26.1 °F 49% 29.98 in 10.0 mi West 13.8 mph - N/A   Scattered Clouds
2:53 PM 42.1 °F 36.1 °F 24.1 °F 49% 29.99 in 10.0 mi West 10.4 mph - N/A   Mostly Cloudy
3:53 PM 42.1 °F 35.2 °F 23.0 °F 47% 30.00 in 10.0 mi WNW 12.7 mph - N/A   Overcast
4:53 PM 41.0 °F 33.9 °F 25.0 °F 53% 30.00 in 10.0 mi West 12.7 mph - N/A   Overcast
5:53 PM 39.9 °F 33.4 °F 26.1 °F 58% 30.01 in 10.0 mi West 10.4 mph - N/A   Overcast
6:53 PM 39.0 °F 32.3 °F 26.1 °F 60% 30.02 in 10.0 mi West 10.4 mph - N/A   Overcast
7:53 PM 37.9 °F 30.5 °F 28.0 °F 68% 30.03 in 10.0 mi West 11.5 mph - N/A   Overcast
8:53 PM 37.0 °F 31.0 °F 28.9 °F 73% 30.03 in 10.0 mi West 8.1 mph - N/A   Overcast
9:53 PM 37.0 °F 29.3 °F 28.0 °F 70% 30.03 in 10.0 mi West 11.5 mph - N/A   Overcast
10:53 PM 36.0 °F 29.6 °F 28.9 °F 76% 30.03 in 10.0 mi WSW 8.1 mph - N/A   Overcast
11:53 PM 35.1 °F 27.4 °F 28.9 °F 78% 30.03 in 10.0 mi West 10.4 mph - N/A   Overcast